This is the latest recevied weather packets stored in our database for station/object N6GPM. If no packets are shown the sender has not sent any weather packets the latest 10 day(s).
| Time | Temp. | Humidity | Pressure | Rain* | Wind** | Luminosity | Snow |
|---|---|---|---|---|---|---|---|
| 1787537376 | 33.33° C | 25% | 1016.8 hPa | 0 mm | - | 17 W/m² | - |
| 1787537076 | 33.33° C | 25% | 1016.8 hPa | 0 mm | - | 22 W/m² | - |
| 1787536775 | 33.89° C | 25% | 1016.5 hPa | 0 mm | - | 31 W/m² | - |
| 1787536471 | 33.89° C | 25% | 1016.8 hPa | 0 mm | - | 36 W/m² | - |
| 1787536172 | 33.89° C | 25% | 1016.8 hPa | 0 mm | - | 44 W/m² | - |
| 1787535867 | 33.89° C | 25% | 1016.7 hPa | 0 mm | - | 50 W/m² | - |
| 1787535567 | 34.44° C | 24% | 1016.5 hPa | 0 mm | - | 60 W/m² | - |
| 1787535263 | 34.44° C | 24% | 1016.4 hPa | 0 mm | - | 69 W/m² | - |
| 1787534958 | 35° C | 24% | 1016.4 hPa | 0 mm | - | 81 W/m² | - |
| 1787534657 | 35° C | 23% | 1016.1 hPa | 0 mm | - | 92 W/m² | - |
| 1787534355 | 35.56° C | 22% | 1016.2 hPa | 0 mm | - | 105 W/m² | - |
| 1787534050 | 35° C | 23% | 1016.2 hPa | 0 mm | - | 119 W/m² | - |
| 1787533747 | 35.56° C | 23% | 1016.4 hPa | 0 mm | - | 135 W/m² | - |
| 1787533444 | 35.56° C | 23% | 1016.4 hPa | 0 mm | - | 152 W/m² | - |
| 1787533144 | 35.56° C | 23% | 1016.1 hPa | 0 mm | - | 168 W/m² | - |
| 1787532840 | 35.56° C | 22% | 1016.2 hPa | 0 mm | - | 187 W/m² | - |
| 1787532534 | 36.11° C | 22% | 1016.3 hPa | 0 mm | - | 207 W/m² | - |
| 1787532224 | 36.11° C | 21% | 1016.2 hPa | 0 mm | - | 228 W/m² | - |
| 1787531920 | 36.11° C | 21% | 1016.4 hPa | 0 mm | - | 251 W/m² | - |
| 1787531617 | 36.11° C | 21% | 1016.4 hPa | 0 mm | - | 271 W/m² | - |
| 1787531312 | 36.11° C | 22% | 1016.4 hPa | 0 mm | - | 292 W/m² | - |
| 1787531007 | 36.11° C | 22% | 1016.3 hPa | 0 mm | - | 312 W/m² | - |
| 1787530702 | 36.67° C | 22% | 1016.3 hPa | 0 mm | - | 333 W/m² | - |
| 1787530397 | 36.67° C | 21% | 1016.2 hPa | 0 mm | - | 353 W/m² | - |
| 1787530092 | 36.67° C | 21% | 1016.3 hPa | 0 mm | - | 374 W/m² | - |
* Rain latest hour (hover to see other rain measurements)
** Current wind speed in m/s (hover to see current wind gust speed)